Orbital Elements at Epoch 2459200.5 (2020-Dec-17.0) TDB
Reference: JPL 14 (heliocentric ecliptic J2000)
Element | Value | Uncertainty (1-sigma) | Units |
e | .1904457162158149 | 4.1964e-08 | |
a | 2.362845698315933 | 2.066e-08 | au |
q | 1.912851856992698 | 1.0444e-07 | au |
i | 2.703462939670493 | 6.7226e-06 | deg |
node | 157.3484928888444 | 0.00019479 | deg |
peri | 150.2061486942262 | 0.00019766 | deg |
M | 205.7382741467885 | 3.6965e-05 | deg |
tp | 2459768.969481640913 (2022-Jul-08.46948164) | 0.00013866 | TDB |
period | 1326.635056484869 3.63 | 1.7399e-05 4.764e-08 | d yr |
n | .2713632496293875 | 3.559e-09 | deg/d |
Q | 2.812839539639168 | 2.4594e-08 | au |
|
| | Orbit Determination Parameters
Additional Information
|